Regional Weather Roundup
Issued by NWS

Home | Current Version | Previous Version | Graphics & Text | Print | Product List | Glossary On
Versions: 1 2 3 4 5 6 7 8 9 10 11 12 13 14 15 16 17 18 19 20 21 22 23 24 25 26 27 28 29 30 31 32 33 34 35 36 37 38 39 40 41 42 43 44 45 46 47 48 49 50
000
ASUS44 KMEG 281800
RWRTN
TENNESSEE HOURLY STATE WEATHER ROUNDUP
NATIONAL WEATHER SERVICE MEMPHIS TN
100 PM CDT THU APR 28 2016

TNZ002-004-019-021-049-052-054-088>092-281900-
WEST TENNESSEE

CITY           SKY/WX    TMP DP  RH WIND       PRES   REMARKS
MEMPHIS INTL   MOSUNNY   81  54  39 NW7       29.94F
NWS MEMPHIS      N/A     79 N/A N/A MISG        N/A
JACKSON        SUNNY     79  54  41 SW9       29.93S
DYERSBURG      SUNNY     77  50  38 W13       29.94R
UNION CITY     SUNNY     75  52  43 W9        29.91S
LEXINGTON      MOSUNNY   79  63  57 VRB5      29.91F
$$

TNZ008-025-027-028-033-062-065-066-281900-
NORTH MIDDLE TENNESSEE

CITY           SKY/WX    TMP DP  RH WIND       PRES   REMARKS
NASHVILLE      PTSUNNY   81  56  42 SW13G20   29.90S
CLARKSVILLE    SUNNY     76  60  57 W10       29.89F
COOKEVILLE     MOSUNNY   81  63  54 W10       29.92R
CROSSVILLE     MOSUNNY   76  54  46 SW10G20   29.96S
$$

TNZ061-075-076-078-094-096-097-281900-
SOUTH MIDDLE TENNESSEE

CITY           SKY/WX    TMP DP  RH WIND       PRES   REMARKS
TULLAHOMA      MOSUNNY   79  63  57 SW8       29.95R
WINCHESTER     MOSUNNY   81  59  47 SW6       29.93F
MCMINNVILLE    MOSUNNY   79  64  61 SW6       29.93S
COLUMBIA       MOSUNNY   82  63  51 SW14      29.89F
SHELBYVILLE    MOSUNNY   82  66  57 SW10      29.93S
$$

TNZ017-018-042-046-047-281900-
NORTHEAST TENNESSEE

CITY           SKY/WX    TMP DP  RH WIND       PRES   REMARKS
TRI CITIES     MOSUNNY   78  62  57 W14       29.92F
$$

TNZ012-013-036-069-073-074-281900-
CENTRAL EAST TENNESSEE

CITY           SKY/WX    TMP DP  RH WIND       PRES   REMARKS
KNOXVILLE      MOSUNNY   80  58  46 SW16G23   29.91F
OAK RIDGE      SUNNY     80  58  46 SW7G23    29.92F
GATLINBURG     CLEAR     81  57  44 W15       29.90F
$$

TNZ083-085-099-281900-
SOUTHEAST TENNESSEE

CITY           SKY/WX    TMP DP  RH WIND       PRES   REMARKS
CHATTANOOGA    MOSUNNY   82  55  39 SW12      29.92F
$$

SKY/WX REPORTED AS FAIR MEANS FEW OR NO CLOUDS BELOW
12 THOUSAND FEET.





USA.gov is the U.S. government's official web portal to all federal, state and local government web resources and services.